Hourly Data Report for October 02, 2014

All times are specified in Local Standard Time (LST). Add 1 hour to adjust for Daylight Saving Time where and when it is observed.

FREDERICTON
NEW BRUNSWICK

45°52'08.000" N
66°32'14.000" W
20.70 m
8101505
71700
YFC

Download Data

Hourly Data (October 2014)
Hourly Data Report for October 2, 2014
Temp Definition
°C
Dew Point Temp Definition
°C
Rel Hum Definition
%
Wind Dir Definition
10's deg

Wind Spd Definition
km/h
Visibility Definition
km
Stn Press Definition
kPa
Hmdx Definition


Wind Chill Definition


Weather Definition


TIME
00:00 Legend Double Dagger 6.6 5.6 93 3 11 16.1 102.17     LegendNANA
01:00 Legend Double Dagger 6.6 5.7 94 3 11 16.1 102.18     LegendNANA
02:00 Legend Double Dagger 7.0 6.0 94 4 17 16.1 102.15     LegendNANA
03:00 Legend Double Dagger 6.0 5.4 96 2 8 16.1 102.13     LegendNANA
04:00 Legend Double Dagger 6.3 5.9 97 1 9 16.1 102.15     LegendNANA
05:00 Legend Double Dagger 6.7 6.1 96 35 5 16.1 102.22     LegendNANA
06:00 Legend Double Dagger 5.7 5.6 99 36 4 16.1 102.22     LegendNANA
07:00 Legend Double Dagger 4.7 4.7 100 34 8 8.1 102.28     Fog
08:00 Legend Double Dagger 8.0 6.3 89 2 9 16.1 102.30     LegendNANA
09:00 Legend Double Dagger 10.7 7.2 79 4 18 16.1 102.30     LegendNANA
10:00 Legend Double Dagger 12.5 7.3 71 3 15 16.1 102.27     LegendNANA
11:00 Legend Double Dagger 14.0 6.3 59 4 18 16.1 102.20     LegendNANA
12:00 Legend Double Dagger 15.2 4.5 48 5 18 16.1 102.16     LegendNANA
13:00 Legend Double Dagger 16.2 6.8 53 4 24 16.1 102.08     LegendNANA
14:00 Legend Double Dagger 17.1 7.9 54 5 22 11.3 101.99     LegendNANA
15:00 Legend Double Dagger 17.2 5.9 47 6 18 16.1 102.02     LegendNANA
16:00 Legend Double Dagger 17.0 5.6 47 2 17 16.1 101.99     LegendNANA
17:00 Legend Double Dagger 15.8 4.6 47 3 18 16.1 102.03     LegendNANA
18:00 Legend Double Dagger 13.5 3.8 52 5 15 16.1 102.07     LegendNANA
19:00 Legend Double Dagger 10.9 4.0 62 4 15 16.1 102.11     LegendNANA
20:00 Legend Double Dagger 9.0 4.3 72 4 13 16.1 102.13     LegendNANA
21:00 Legend Double Dagger 7.7 4.5 80 2 11 16.1 102.18     LegendNANA
22:00 Legend Double Dagger 7.2 5.2 87 3 11 16.1 102.11     LegendNANA
23:00 Legend Double Dagger 6.7 5.2 90 36 8 16.1 102.08     LegendNANA

Notes on Data Quality.

Legend

  • E = Estimated
  • M = Missing
  • NA = Not Available
  • ‡ = Partner data that is not subject to review by the National Climate Archives
Date modified: